Regional Weather Roundup
Issued by NWS

Home | Current Version | Previous Version | Graphics & Text | Print | Product List | Glossary On
Versions: 1 2 3 4 5 6 7 8 9 10 11 12 13 14 15 16 17 18 19 20 21 22 23 24 25 26 27 28 29 30 31 32 33 34 35 36 37 38 39 40 41 42 43 44 45 46 47 48 49 50
162
ASUS43 KLMK 270502
RWRKY
KENTUCKY REGIONAL WEATHER ROUNDUP
NATIONAL WEATHER SERVICE LOUISVILLE KY
100 AM EDT THU JUL 27 2017

NOTE "FAIR" INDICATES FEW OR NO CLOUDS BELOW 12,000 FEET
WITH NO SIGNIFICANT WEATHER AND/OR OBSTRUCTIONS TO VISIBILITY.

KYZ001>023-026-027-061>063-070>075-270600-
WESTERN AND SOUTH CENTRAL KENTUCKY

CITY           SKY/WX    TMP DP  RH WIND       PRES   REMARKS
PADUCAH        PTCLDY    81  73  76 SW6       29.98S
HENDERSON      MOCLDY    76  73  91 CALM      29.99F
OWENSBORO      CLOUDY    76  74  93 S3        29.99F
HOPKINSVILLE   PTCLDY    81  76  83 SW3       30.01S
BOWLING GREEN  CLOUDY    80  75  84 CALM      30.02S
GLASGOW        NOT AVBL
$$

KYZ024-025-028>034-038-045-046-053-270600-
NORTH CENTRAL KENTUCKY

CITY           SKY/WX    TMP DP  RH WIND       PRES   REMARKS
LOUISVILLE/SDF CLOUDY    82  71  69 S5        29.99F
LOUISVILLE/LOU PTCLDY    82  73  74 CALM      30.00F
FORT KNOX      CLOUDY    76  73  92 CALM      30.00S
$$

KYZ035>037-039>044-047>052-055>060-089>105-270600-
NORTHEAST KENTUCKY

CITY           SKY/WX    TMP DP  RH WIND       PRES   REMARKS
LEXINGTON      MOCLDY    77  70  79 S7        30.03F
COVINGTON      MOCLDY    77  70  79 SE7       30.01F
FRANKFORT      CLOUDY    80  71  74 CALM      30.01F
$$

KYZ054-064>069-076>088-106>120-270600-
SOUTHEAST KENTUCKY

CITY           SKY/WX    TMP DP  RH WIND       PRES   REMARKS
JACKSON        PTCLDY    77  68  73 SE3       30.07F
LONDON         CLOUDY    74  70  87 CALM      30.07F
SOMERSET       MOCLDY    72  70  94 CALM      30.06F
MIDDLESBORO    CLOUDY    72  71  98 CALM      30.09S
MONTICELLO     CLOUDY    72  71  97 CALM      30.06F
$$





USA.gov is the U.S. government's official web portal to all federal, state and local government web resources and services.